Voltar ao catálogo

STARLINK-5922

AtivoComunicaçõesVLEO
NORAD 55925·PAYLOAD·🇺🇸 United States

Lançado Mar 17, 2023 de Vandenberg Space Force Base

Loading…

Próximas Passagens (próximas 24 horas)

TLE

AtualizadoSource: CelesTrak SupGP

Época: Sep 14, 2026, 20:58 UTC

1 55925C 23037M   26257.87409722  .00104450  00000+0  87432-2 0  2578
2 55925  70.0021 187.3787 0002758 266.6484 216.2301 14.98323113    18

Acompanhe STARLINK-5922 em tempo real com AllMySat

Download on the App Store